Weather Roundup
Issued by NWS Corpus Christi, TX

Home | Current Version | Previous Version | Text Only | Print | Product List | Glossary On
Versions: 1 2 3 4 5 6 7 8 9 10 11 12 13 14 15 16 17 18 19 20 21 22 23 24 25 26 27 28 29 30 31 32 33 34 35 36 37 38 39 40 41 42 43 44 45 46 47 48 49 50
000
ASUS44 KCRP 271310
HRRCRP

SOUTH TEXAS REGIONAL WEATHER ROUNDUP
NATIONAL WEATHER SERVICE CORPUS CHRISTI TX
700 AM CST MON FEB 27 2017


TXZ229>244-271400-
...CORPUS CHRISTI AREA OBSERVATIONS...

CITY           SKY/WX    TMP DP  RH WIND       PRES   REMARKS
CORPUS CHRISTI PTCLDY    65  65 100 SE8       29.90S FOG
NAS CORPUS CHR PTCLDY    67  67 100 SE7       29.90S FOG
ROCKPORT       CLEAR     68  66  93 SE6       29.92S FOG
KINGSVILLE NAS PTCLDY    67  67 100 SE3       29.89S FOG
ALICE          CLOUDY    69  67  93 S10       29.89S
ORANGE GROVE   CLOUDY    70  68  93 S10       29.91R
FALFURRIAS     CLOUDY    67  66  96 E5        29.88S
$$

...VICTORIA AREA OBSERVATIONS...

CITY           SKY/WX    TMP DP  RH WIND       PRES   REMARKS
VICTORIA       CLOUDY    66  65  96 E5        29.95S FOG
BEEVILLE       CLOUDY    69  69 100 SE3       29.93R
PLEASANTON     CLOUDY    67  65  94 E5        29.92S
SAN ANTONIO    CLOUDY    67  63  87 SE9       29.93S
$$

...LAREDO AREA OBSERVATIONS...

CITY           SKY/WX    TMP DP  RH WIND       PRES   REMARKS
LAREDO         PTCLDY    66  65  96 SE12      29.88R
COTULLA        CLOUDY    68  64  87 SE7       29.88R
DEL RIO        CLOUDY    61  58  90 W5        29.90R
MCALLEN        CLEAR     70  67  90 SE6       29.89R
HEBBRONVILLE   PTCLDY    65  63  94 CALM      29.89R FOG
$$

...OTHER TEXAS OBSERVATIONS...

CITY           SKY/WX    TMP DP  RH WIND       PRES   REMARKS
BROWNSVILLE    MOCLDY    69  68  96 S6        29.89R
HOUSTON        MOCLDY    69  66  90 S3        29.98S
COL. STATION   CLOUDY    67  66  97 SE8       29.96S
AUSTIN         CLOUDY    67  65  93 SE3       29.94S FOG
WACO           CLOUDY    63  63 100 SE6       29.94R
FORT WORTH     CLOUDY    63  62  97 S6        29.92R
WICHITA FALLS  CLOUDY    56  55  97 S9        29.90R
LUBBOCK        PTCLDY    34  22  61 NW5       29.89F
EL PASO        CLEAR     39  17  41 SE5       29.97R
$$

...MARINE OBSERVATIONS...

STATION/POSITION TIME  SKY/WX   TEMP    WIND        PRES    VSBY  WAVE   SWELL
                                AIR SEA DIR/SP/G                  HT/PER HT/PER
                 (UTC)          (F)     (DEG/KT/KT) (MB)    (MI)  (FT/S) (FT/S)
PORT ARANSAS     1200            68 67  150/  4/  4 1012.6R
BUOY 90 E PORT A 1150            72 70  160/ 16/ 17 1012.8          6/ 6   2/15
BUOY 45 SE BAFFI 1150            74     180/ 16/ 17 1011.3          5/ 6   2/11
BUOY 200 E PT IS 1150            75 74  140/ 16/ 19 1014.1          5/ 7
BUOY 15 E GALVES 1150            67 65  130/  6/  6 1014.8          3/ 6   3/ 6
$$




USA.gov is the U.S. government's official web portal to all federal, state and local government web resources and services.